Weather reports worldwide

Advertisment
Trawscoed, United Kingdom (3503): temperature & dewpoint: 14.01.2021 13:00:00 - 20.01.2021 13:00:00 (GMT)Trawscoed, United Kingdom (3503): temperature -20cm & temperature -100cm: 14.01.2021 13:00:00 - 20.01.2021 13:00:00 (GMT)Trawscoed, United Kingdom (3503): wind speed & gusts: 14.01.2021 13:00:00 - 20.01.2021 13:00:00 (GMT)Trawscoed, United Kingdom (3503): wind direction: 14.01.2021 13:00:00 - 20.01.2021 13:00:00 (GMT)Trawscoed, United Kingdom (3503): reduced air pressure: 14.01.2021 13:00:00 - 20.01.2021 13:00:00 (GMT)Trawscoed, United Kingdom (3503): visibility: 14.01.2021 13:00:00 - 20.01.2021 13:00:00 (GMT)Trawscoed, United Kingdom (3503): precipitation: 14.01.2021 13:00:00 - 20.01.2021 13:00:00 (GMT)
Date & Time tt [°C] td [°C] tt -20cm [°C] tt -100cm [°C] ff [km/h] ff [kn] fx [km/h] fx [kn] dd ppp [hPa] vv [km] rr [mm]
20.01.2021 13:00:00 10,8 9,9 - - 21 11 - - S 978,3 9 0,8
20.01.2021 12:00:00 10,9 9,9 - - 22 12 - - S 979,5 21 2,2
20.01.2021 11:00:00 10,9 10,1 - - 18 10 - - S 980,5 7 0,8
20.01.2021 10:00:00 10,8 10,0 - - 18 10 - - S 981,6 5 0,6
20.01.2021 09:00:00 10,5 9,8 6,9 7,0 16 9 - - S 982,7 4,5 2,6
20.01.2021 08:00:00 10,6 9,8 - - 13 7 - - S 983,6 6 2,8
20.01.2021 07:00:00 10,6 9,8 - - 16 9 - - S 984,1 11 2,6
20.01.2021 06:00:00 10,7 9,8 - - 18 10 - - S 984,9 8 1,8
20.01.2021 05:00:00 10,7 10,0 - - 15 8 - - S 985,6 9 3,4
20.01.2021 04:00:00 10,9 10,1 - - 13 7 - - S 986,4 10 3,2
20.01.2021 03:00:00 10,8 10,1 - - 13 7 - - S 986,9 10 2,0
20.01.2021 02:00:00 11,1 10,3 - - 15 8 - - S 987,6 12 1,8
20.01.2021 01:00:00 10,9 10,1 - - 18 10 - - S 988,3 9 1,6
20.01.2021 00:00:00 10,7 10,0 - - 16 9 - - S 989,0 3,9 0,2
19.01.2021 23:00:00 10,7 9,9 - - 15 8 - - S 989,9 13 0,2
19.01.2021 22:00:00 10,8 10,0 - - 16 9 - - S 990,8 4,3 0,2
19.01.2021 21:00:00 10,5 9,8 - - 13 7 - - S 991,7 6 0,2
19.01.2021 20:00:00 10,5 9,7 - - 21 11 - - S 992,1 6 2,0
19.01.2021 19:00:00 10,3 9,5 - - 18 10 - - S 992,8 5 1,4
19.01.2021 18:00:00 10,1 9,3 - - 22 12 - - S 993,8 6 2,4
19.01.2021 17:00:00 10,0 9,2 - - 18 10 - - S 995,0 3,8 0,2
19.01.2021 16:00:00 9,9 9,0 - - 21 11 - - S 996,0 5 1,0
19.01.2021 15:00:00 9,8 8,8 - - 24 13 48 26 S 996,6 10 1,6
19.01.2021 14:00:00 10,0 8,8 - - 26 14 46 25 S 997,9 5 0,0
19.01.2021 13:00:00 9,8 8,9 - - 16 9 - - S 999,8 7 2,0
19.01.2021 12:00:00 9,5 8,7 - - 13 7 - - S 1001,2 9 1,6
19.01.2021 11:00:00 9,6 8,5 - - 13 7 - - SSW 1002,3 4,9 0,2
19.01.2021 10:00:00 9,5 8,2 - - 21 11 - - WSW 1003,0 5 0,2
19.01.2021 09:00:00 10,0 9,3 6,2 7,0 11 6 - - SW 1003,3 4,9 0,2
19.01.2021 08:00:00 9,9 9,0 - - 13 7 46 25 WSW 1003,8 4,1 0,2
19.01.2021 07:00:00 10,2 9,2 - - 24 13 48 26 WSW 1004,2 19 0,0
19.01.2021 06:00:00 10,3 9,6 - - 28 15 57 31 WSW 1004,3 13 0,0
19.01.2021 05:00:00 10,8 9,5 - - 24 13 50 27 WSW 1004,7 30 0,2
19.01.2021 04:00:00 10,7 9,8 - - 28 15 50 27 WSW 1004,9 6 2,0
19.01.2021 03:00:00 11,1 10,2 - - 28 15 50 27 WSW 1004,7 9 1,2
19.01.2021 02:00:00 11,0 10,2 - - 28 15 55 30 WSW 1005,0 9 1,2
19.01.2021 01:00:00 11,4 10,3 - - 28 15 52 28 WSW 1005,1 12 4,2
19.01.2021 00:00:00 10,0 9,3 - - 11 6 - - S 1005,7 14 1,2
18.01.2021 23:00:00 10,2 9,3 - - 11 6 - - S 1007,4 19 0,6
18.01.2021 22:00:00 9,8 9,1 - - 13 7 - - S 1008,4 50 0,0
18.01.2021 21:00:00 9,8 9,2 - - 15 8 - - S 1009,6 16 0,8
18.01.2021 20:00:00 9,1 8,6 - - 11 6 - - S 1010,6 5 1,4
18.01.2021 19:00:00 8,6 7,8 - - 13 7 - - S 1011,7 11 2,2
18.01.2021 18:00:00 8,4 7,5 - - 11 6 - - S 1013,1 8 0,0
18.01.2021 17:00:00 8,2 7,3 - - 13 7 - - S 1014,3 50 0,0
18.01.2021 16:00:00 8,0 7,5 - - 15 8 - - S 1015,2 7 1,4
18.01.2021 15:00:00 7,4 6,8 - - 13 7 - - SE 1016,1 11 0,4
18.01.2021 14:00:00 6,8 6,4 - - 8 4 - - S 1017,6 1,7 0,2
18.01.2021 13:00:00 6,2 5,4 - - 9 5 - - SSE 1019,1 7 0,4
18.01.2021 12:00:00 6,0 4,6 - - 11 6 - - S 1020,4 3,2 0,0
18.01.2021 11:00:00 5,6 4,2 - - 8 4 - - S 1021,2 26 0,0
18.01.2021 10:00:00 5,4 4,3 - - 5 3 - - S 1021,6 12 0,2
18.01.2021 09:00:00 4,8 3,7 6,0 7,0 4 2 - - ESE 1022,1 30 0,0
18.01.2021 08:00:00 4,6 3,3 - - 2 1 - - SE 1022,4 35 0,0
18.01.2021 07:00:00 4,8 3,1 - - 2 1 - - SSE 1022,4 50 0,2
18.01.2021 06:00:00 4,7 4,0 - - 8 4 - - ESE 1022,5 35 0,4
18.01.2021 05:00:00 5,3 3,4 - - 5 3 - - W 1023,0 40 0,4
18.01.2021 04:00:00 5,3 4,2 - - 8 4 - - WSW 1023,6 35 0,4
18.01.2021 03:00:00 4,0 3,4 - - 9 5 - - SSE 1023,9 19 0,2
18.01.2021 02:00:00 4,0 3,2 - - 5 3 - - E 1024,3 27 0,0
18.01.2021 01:00:00 5,0 3,5 - - 8 4 - - SSW 1025,0 26 0,2
18.01.2021 00:00:00 5,4 3,5 - - 13 7 - - SSW 1025,6 30 0,0
17.01.2021 23:00:00 6,0 3,5 - - 15 8 - - SW 1025,8 23 0,0
17.01.2021 22:00:00 5,5 3,1 - - 13 7 - - SW 1026,2 21 0,0
17.01.2021 21:00:00 4,5 3,3 - - 8 4 - - SSW 1026,6 18 0,0
17.01.2021 20:00:00 6,1 4,2 - - 13 7 - - SW 1026,6 15 0,0
17.01.2021 19:00:00 5,6 3,8 - - 8 4 - - SW 1027,0 16 0,0
17.01.2021 18:00:00 5,8 4,1 - - 8 4 - - WSW 1027,1 16 0,0
17.01.2021 17:00:00 5,9 3,9 - - 8 4 - - SW 1027,1 15 0,0
17.01.2021 16:00:00 6,7 4,2 - - 2 1 - - W 1027,1 15 0,0
17.01.2021 15:00:00 7,2 4,6 - - 9 5 - - W 1026,8 13 0,0
17.01.2021 14:00:00 7,2 4,2 - - 15 8 - - W 1026,8 16 0,0
17.01.2021 13:00:00 7,4 4,6 - - 15 8 - - W 1026,7 14 0,0
17.01.2021 12:00:00 7,3 4,7 - - 15 8 - - WNW 1026,8 14 0,0
17.01.2021 11:00:00 6,9 4,4 - - 11 6 - - WNW 1027,0 17 0,0
17.01.2021 10:00:00 6,9 4,1 - - 15 8 - - NW 1026,0 15 0,0
17.01.2021 09:00:00 6,4 4,0 6,0 6,9 18 10 - - WNW 1025,5 16 0,0
17.01.2021 08:00:00 6,2 3,8 - - 15 8 - - WNW 1024,8 18 0,2
17.01.2021 07:00:00 6,4 3,7 - - 18 10 - - NW 1023,7 18 0,0
17.01.2021 06:00:00 6,2 3,2 - - 15 8 - - NW 1023,5 20 0,0
17.01.2021 05:00:00 5,9 2,9 - - 16 9 - - NW 1022,9 24 0,0
17.01.2021 04:00:00 6,5 3,2 - - 18 10 - - NW 1022,5 22 0,0
17.01.2021 03:00:00 6,5 3,1 - - 16 9 - - WNW 1021,8 23 0,0
17.01.2021 02:00:00 6,8 3,8 - - 18 10 - - WNW 1021,2 15 0,0
17.01.2021 01:00:00 6,9 3,8 - - 24 13 - - WNW 1020,9 17 0,0
17.01.2021 00:00:00 6,7 3,7 - - 15 8 - - WNW 1020,6 12 0,0
16.01.2021 23:00:00 6,9 3,5 - - 16 9 - - WNW 1020,4 12 0,0
16.01.2021 22:00:00 7,2 3,6 - - 16 9 - - WNW 1020,1 12 0,0
16.01.2021 21:00:00 6,8 3,1 - - 8 4 - - WNW 1019,9 13 0,0
16.01.2021 20:00:00 7,4 3,0 - - 15 8 - - NW 1019,9 13 0,0
16.01.2021 19:00:00 7,6 2,9 - - 15 8 - - NW 1019,7 13 0,0
16.01.2021 18:00:00 7,5 3,3 - - 15 8 - - NW 1019,6 13 0,0
16.01.2021 17:00:00 7,7 4,4 - - 16 9 - - WNW 1018,7 16 0,0
16.01.2021 16:00:00 7,8 5,4 - - 16 9 - - WNW 1017,9 14 0,0
16.01.2021 15:00:00 8,0 5,7 - - 16 9 - - WNW 1017,2 11 0,0
16.01.2021 14:00:00 8,2 5,7 - - 18 10 - - WNW 1017,2 13 0,0
16.01.2021 13:00:00 8,5 5,9 - - 16 9 - - W 1017,1 13 0,0
16.01.2021 12:00:00 8,4 5,8 - - 15 8 - - W 1017,4 16 0,0
16.01.2021 11:00:00 8,6 5,8 - - 13 7 - - W 1017,2 19 0,0
16.01.2021 10:00:00 7,9 5,7 - - 8 4 - - WNW 1016,6 17 0,0
16.01.2021 09:00:00 7,8 6,0 5,7 6,9 15 8 - - WNW 1015,9 22 0,0
16.01.2021 08:00:00 8,5 7,5 - - 16 9 - - W 1014,7 15 0,4
16.01.2021 07:00:00 8,5 8,1 - - 13 7 - - SSW 1014,0 3,3 0,4
16.01.2021 06:00:00 7,6 6,5 - - 24 13 50 27 S 1013,8 8 0,2
16.01.2021 05:00:00 7,2 5,9 - - 31 17 65 35 S 1014,6 9 0,2
16.01.2021 04:00:00 7,3 5,4 - - 26 14 68 37 S 1015,3 50 0,2
16.01.2021 03:00:00 6,8 5,3 - - 35 19 61 33 S 1016,8 8 1,4
16.01.2021 02:00:00 6,1 4,6 - - 37 20 59 32 SSE 1018,3 14 1,8
16.01.2021 01:00:00 5,5 4,2 - - 37 20 61 33 SSE 1019,4 5 3,4
16.01.2021 00:00:00 4,8 3,1 - - 28 15 48 26 SSE 1021,4 7 0,8
15.01.2021 23:00:00 5,0 2,1 - - 24 13 48 26 SSE 1022,4 30 0,0
15.01.2021 22:00:00 4,7 1,6 - - 26 14 46 25 SSE 1023,3 40 0,0
15.01.2021 21:00:00 4,3 1,1 - - 18 10 - - SE 1024,5 35 0,0
15.01.2021 20:00:00 3,9 0,3 - - 13 7 - - SE 1025,9 45 0,0
15.01.2021 19:00:00 3,6 0,2 - - 11 6 - - SSE 1026,6 50 0,0
15.01.2021 18:00:00 2,6 0,5 - - 4 2 - - S 1027,6 40 0,0
15.01.2021 17:00:00 2,3 0,6 - - 9 5 - - SSE 1027,8 35 0,0
15.01.2021 16:00:00 3,8 0,9 - - 9 5 - - SSE 1027,9 40 0,0
15.01.2021 15:00:00 4,3 1,1 - - 13 7 - - SSE 1028,5 35 0,0
15.01.2021 14:00:00 4,5 1,0 - - 11 6 - - SSE 1029,1 35 0,0
15.01.2021 13:00:00 4,2 1,1 - - 11 6 - - SE 1029,9 35 0,0
15.01.2021 12:00:00 3,6 0,6 - - 9 5 - - SE 1030,5 29 0,0
15.01.2021 11:00:00 2,6 0,5 - - 4 2 - - SSE 1030,6 30 0,0
15.01.2021 10:00:00 0,8 -0,2 - - 2 1 - - SW 1030,7 22 0,0
15.01.2021 09:00:00 0,3 -0,7 6,2 6,7 2 1 - - SW 1030,4 24 0,0
15.01.2021 08:00:00 0,5 -0,5 - - 4 2 - - WNW 1029,6 20 0,0
15.01.2021 07:00:00 0,8 -0,4 - - 4 2 - - S 1029,6 22 0,0
15.01.2021 06:00:00 1,0 -0,2 - - 8 4 - - S 1029,2 18 0,0
15.01.2021 05:00:00 2,3 1,1 - - 4 2 - - W 1028,5 16 0,0
15.01.2021 04:00:00 3,2 2,2 - - 0 0 - - N 1028,4 30 0,0
15.01.2021 03:00:00 3,3 2,1 - - 2 1 - - SSE 1027,8 28 0,0
15.01.2021 02:00:00 3,5 2,0 - - 0 0 - - N 1027,4 22 0,0
15.01.2021 01:00:00 3,6 2,0 - - 8 4 - - SW 1026,8 21 0,0
15.01.2021 00:00:00 3,7 2,6 - - 9 5 48 26 E 1026,6 20 0,0
14.01.2021 23:00:00 3,8 3,4 - - 4 2 - - NNE 1025,8 50 0,0
14.01.2021 22:00:00 3,1 2,6 - - 4 2 - - E 1025,3 35 0,0
14.01.2021 21:00:00 2,5 1,3 - - 4 2 - - S 1024,2 30 0,0
14.01.2021 20:00:00 5,1 3,7 - - 11 6 - - WNW 1023,7 35 0,0
14.01.2021 19:00:00 5,8 4,1 - - 15 8 - - NW 1023,3 22 0,0
14.01.2021 18:00:00 6,3 4,3 - - 18 10 - - NW 1022,9 23 0,0
14.01.2021 17:00:00 7,0 5,2 - - 21 11 - - NNW 1022,1 28 0,0
14.01.2021 16:00:00 7,3 6,5 - - 21 11 - - NNW 1020,9 9 0,2
14.01.2021 15:00:00 7,7 6,4 - - 26 14 50 27 NW 1019,6 9 0,0
14.01.2021 14:00:00 7,7 6,7 - - 22 12 - - NW 1019,1 18 0,4
14.01.2021 13:00:00 7,7 7,3 - - 24 13 48 26 NW 1018,8 2,6 0,8

tt = temperature
td = dewpoint
tt -20cm = temperature -20cm
tt -100cm = temperature -100cm
ff = wind speed
fx = gusts
dd = wind direction
ppp = reduced air pressure
vv = visibility
rr = precipitation

Next stations